SCP
0 0 0 0 0 0 0 0 0 0 0 0 0 0 0 0 0 0 0 0 0 0 0 0 0 0 0 0 0 0 0 0 0 0 0 0 0 0 0 0 0 0 0
0 0 0 0 0 0 0 0 0 0 0 0 0 0 0 0 0 0 0 0 0 0 0 0 0 0 0 0 0 0 0 0 0 0 0 0 0 0 0 0 0 0 0
0 0 0 0 0 0 0 0 0 0 0 0 0 0 0 0 0 0 0 0 0 0 0 0 0 0 0 0 0 0 0 0 0 0 0 0 0 0 0 0 0 0 0
0 0 0 0 0 0 0 0 0 0 0 0 0 0 0 0 0 0 0 0 0 0 0 0 0 0 0 0 0 0 0 0 0 0 0 0 0 0 0 0 0 0 0
0 0 0 0 0 0 0 0 0 0 0 0 0 0 0 0 0 0 0 0 0 0 0 0 0 0 0 0 0 0 0 0 0 0 0 0 0 0 0 0 0 0 0
0 0 0 0 0 0 0 0 0 0 0 0 0 0 0 0 0 0 0 0 0 0 0 0 0 0 0 0 0 0 0 0 0 0 0 0 0 0 0 0 0 0 0
0 0 0 0 0 0 0 0 0 0 0 0 0 0 0 0 0 0 0 0 0 0 0 0 0 0 0 0 0 0 0 0 0 0 0 0 0 0 0 0 0 0 0
0 0 0 0 0 0 0 0 0 0 0 0 0 0 0 0 0 0 0 0 0 0 0 0 0 0 0 0 0 0 0 0 0 0 0 0 0 0 0 0 0 0 0
0 0 0 0 0 0 0 0 0 0 0 0 0 0 0 0 0 0 0 0 0 0 0 0 0 0 0 0 0 0 0 0 0 0 0 0 0 0 0 0 0 0 0
0 0 0 0 0 0 0 0 0 0 0 0 0 0 0 0 0 0 0 0 0 0 0 0 0 0 0 0 0 0 0 0 0 0 0 0 0 0 0 0 0 0 0
0 0 0 0 0 0 0 0 0 0 0 0 0 0 0 0 0 0 0 0 0 0 0 0 0 0 0 0 0 0 0 0 0 0 0 0 0 0 0 0 0 0 0
0 0 0 0 0 0 0 0 0 0 0 0 0 0 0 0 0 0 0 0 0 0 0 0 0 0 0 0 0 0 0 0 0 0 0 0 0 0 0 0 0 0 0
0 0 0 0 0 0 0 0 0 0 0 0 0 0 0 0 0 0 0 0 0 0 0 0 0 0 0 0 0 0 0 0 0 0 0 0 0 0 0 0 0 0 0
0 0 0 0 0 0 0 0 0 0 0 0 0 0 0 0 0 0 0 0 0 0 0 0 0 0 0 0 0 0 0 0 0 0 0 0 0 0 0 0 0 0 0
0 0 0 0 0 0 0 0 0 0 0 0 0 0 0 0 0 0 0 0 0 0 0 0 0 0 0 0 0 0 0 0 0 0 0 0 0 0 0 0 0 0 0
0 0 0 0 0 0 0 0 0 0 0 0 0 0 0 0 0 0 0 0 0 0 0 0 0 0 0 0 0 0 0 0 0 0 0 0 0 0 0 0 0 0 0
0 0 0 0 0 0 0 0 0 0 0 0 0 0 0 0 0 0 0 0 0 0 0 0 0 0 0 0 0 0 0 0 0 0 0 0 0 0 0 0 0 0 0
0 0 0 0 0 0 0 0 0 0 0 0 0 0 0 0 0 0 0 0 0 0 0 0 0 0 0 0 0 0 0 0 0 0 0 0 0 0 0 0 0 0 0
0 0 0 0 0 0 0 0 0 0 0 0 0 0 0 0 0 0 0 0 0 0 0 0 0 0 0 0 0 0 0 0 0 0 0 0 0 0 0 0 0 0 0
0 0 0 0 0 0 0 0 0 0 0 0 0 0 0 0 0 0 0 0 0 0 0 0 0 0 0 0 0 0 0 0 0 0 0 0 0 0 0 0 0 0 0
0 0 0 0 0 0 0 0 0 0 0 0 0 0 0 0 0 0 0 0 0 0 0 0 0 0 0 0 0 0 0 0 0 0 0 0 0 0 0 0 0 0 0
0 0 0 0 0 0 0 0 0 0 0 0 0 0 0 0 0 0 0 0 0 0 0 0 0 0 0 0 0 0 0 0 0 0 0 0 0 0 0 0 0 0 0
0 0 0 0 0 0 0 0 0 0 0 0 0 0 0 0 0 0 0 0 0 0 0 0 0 0 0 0 0 0 0 0 0 0 0 0 0 0 0 0 0 0 0
0 0 0 0 0 0 0 0 0 0 0 0 0 0 0 0 0 0 0 0 0 0 0 0 0 0 0 0 0 0 0 0 0 0 0 0 0 0 0 0 0 0 0
0 0 0 0 0 0 0 0 0 0 0 0 0 0 0 0 0 0 0 0 0 0 0 0 0 0 0 0 0 0 0 0 0 0 0 0 0 0 0 0 0 0 0
0 0 0 0 0 0 0 0 0 0 0 0 0 0 0 0 0 0 0 0 0 0 0 0 0 0 0 0 0 0 0 0 0 0 0 0 0 0 0 0 0 0 0
Wind_Speed
4 4 3 3 4 4 4 5 6 6 6 7 6 7 7 8 7 6 4 6 7 8 9 9 9 8 9 8 8 8 7 8 7 7 7 7 6 6 7 7 7 7 7
4 4 4 4 4 4 4 5 6 5 5 5 6 7 7 7 7 7 6 6 8 8 9 10 10 9 9 9 9 8 8 7 8 7 7 7 6 7 7 7 7 8 7
4 4 4 4 4 4 5 5 6 5 4 5 7 8 6 7 6 7 7 5 6 8 9 10 10 10 9 9 9 8 7 6 6 6 6 6 6 6 7 7 7 7 8
5 4 4 4 4 4 4 4 4 5 5 5 6 6 6 6 7 7 6 6 5 5 7 8 8 8 8 8 8 8 7 7 6 7 7 7 7 8 8 8 8 8 9
5 4 4 4 5 4 4 4 4 5 5 5 5 5 5 5 6 6 7 7 6 5 4 5 6 6 7 7 8 8 8 7 7 7 8 8 8 9 9 9 9 10 10
4 4 4 5 4 4 4 4 4 4 4 4 4 4 5 5 5 6 6 6 5 5 5 4 4 5 5 6 7 7 8 8 7 7 7 8 9 9 10 11 11 11 11
3 4 3 4 4 4 4 5 4 5 4 3 3 4 4 6 6 5 5 5 5 5 5 4 4 3 3 4 4 5 7 8 8 8 8 8 9 10 11 11 12 12 12
3 3 4 3 4 3 5 5 5 4 3 3 3 3 4 4 5 4 5 5 5 4 4 4 3 3 3 2 2 3 6 8 9 10 9 10 10 11 12 12 12 12 13
3 3 4 4 4 4 4 4 5 5 4 4 3 3 4 4 2 3 5 5 5 4 3 3 3 3 3 3 2 2 4 7 9 11 11 11 11 12 13 13 13 14 14
3 3 4 4 4 3 4 4 4 4 5 4 3 3 4 3 3 2 3 3 4 4 3 3 3 3 3 3 3 3 4 6 9 11 11 12 12 13 14 14 14 14 14
3 3 3 3 3 3 4 4 4 5 4 5 4 3 4 3 4 4 4 3 3 3 3 3 3 3 3 4 3 4 5 7 10 11 12 13 13 14 14 15 15 15 15
2 3 3 3 3 3 3 4 4 5 4 5 4 4 4 3 4 4 5 4 4 3 3 3 3 3 3 3 4 5 6 7 9 11 13 13 14 14 14 15 15 15 15
2 3 3 3 2 2 3 3 3 3 4 4 4 3 3 4 3 3 4 4 4 4 4 4 3 3 3 3 4 5 7 8 10 12 13 14 14 14 14 15 15 15 16
3 3 3 3 2 2 2 2 2 2 2 3 3 3 3 2 2 3 3 4 4 4 5 5 3 3 3 4 5 6 7 8 10 12 14 14 13 13 13 14 14 15 15
3 3 3 2 2 2 2 2 1 2 2 2 2 3 3 2 2 2 3 3 4 5 5 5 4 4 4 4 5 7 8 8 11 12 13 13 13 13 13 13 14 14 14
3 3 3 3 2 2 2 2 1 1 1 1 1 2 2 2 2 2 2 3 4 5 5 4 4 4 5 5 6 8 8 10 11 12 13 13 13 14 14 14 14 14 14
3 3 3 3 2 2 2 2 2 2 2 2 2 2 2 2 2 2 2 3 3 4 6 5 5 5 7 7 6 7 7 7 7 10 12 13 13 13 13 13 14 14 15
3 3 3 3 2 2 2 2 2 2 2 2 2 2 3 2 3 2 2 3 3 4 5 7 6 5 7 7 7 8 7 6 7 10 12 13 13 13 13 13 14 14 14
3 3 3 3 3 3 3 3 3 3 2 2 3 3 3 3 3 3 3 3 3 3 4 6 6 5 5 5 7 7 7 7 7 8 11 11 11 12 13 14 14 14 14
3 3 3 3 3 3 3 3 3 3 3 3 3 3 3 3 4 3 3 3 3 3 4 4 5 5 5 5 5 6 6 6 7 7 8 8 10 12 13 13 13 13 13
3 3 3 3 3 3 2 3 3 3 3 3 3 3 3 3 3 3 3 3 3 3 3 4 5 5 4 4 5 5 7 7 7 5 6 6 7 7 8 10 11 12 13
3 3 3 3 3 2 2 3 3 3 3 3 3 3 3 3 3 4 4 4 4 4 4 4 5 6 6 6 6 6 6 7 6 4 6 8 7 7 7 7 10 12 14
3 3 3 3 3 3 3 4 4 3 3 3 3 3 2 2 3 3 3 4 4 5 6 6 6 7 7 7 7 7 7 7 8 7 7 8 7 7 7 7 11 13 13
4 4 3 4 3 3 3 4 4 4 3 3 3 3 3 3 2 3 3 3 3 3 4 5 5 6 6 7 7 7 7 8 8 6 6 7 6 7 7 7 10 11 12
4 4 4 4 4 3 4 4 4 3 3 3 3 2 3 3 2 3 3 3 4 3 3 3 5 6 7 8 7 5 5 5 6 5 4 5 6 8 7 7 7 9 11
4 4 4 4 4 4 4 4 4 3 3 2 2 2 3 3 3 3 3 3 4 4 4 4 4 5 5 5 6 5 4 5 5 5 3 4 5 6 6 5 6 7 8
Wind_Direction
252 247 242 235 236 234 226 228 228 227 226 226 224 222 222 221 223 220 202 190 217 232 236 240 240 239 234 234 236 239 241 240 244 249 253 260 267 275 278 281 285 287 292
258 253 249 243 241 238 235 231 229 228 229 225 226 225 226 227 227 224 224 201 208 227 236 242 244 244 241 240 239 241 241 244 246 249 254 259 266 274 279 281 283 284 287
259 256 254 247 243 242 236 232 228 226 230 228 228 230 230 230 231 231 226 225 214 214 228 239 243 243 242 244 245 245 243 241 246 249 254 259 264 270 274 281 287 285 286
256 253 253 252 248 239 232 228 222 223 226 229 231 229 228 228 233 235 231 226 226 224 216 225 238 243 244 245 247 247 247 246 248 251 255 260 264 267 271 276 281 282 284
261 250 249 252 248 238 234 231 225 228 229 230 237 237 234 234 236 234 235 232 229 228 230 204 217 234 242 245 249 251 255 257 257 257 259 263 265 267 271 274 278 280 280
275 262 252 249 245 237 235 231 228 232 236 235 238 243 243 240 238 239 239 232 226 224 227 231 221 219 226 242 251 258 262 262 263 263 264 268 270 272 272 272 273 277 280
287 269 262 255 245 234 234 232 229 228 234 235 239 242 244 239 237 237 234 229 221 221 223 230 232 236 219 214 239 264 272 270 266 265 266 270 273 274 275 275 275 275 277
292 274 263 254 247 238 232 226 224 223 226 221 232 240 240 230 223 228 229 227 227 220 218 223 232 239 246 240 230 257 272 276 273 269 268 268 271 274 274 275 277 278 278
292 286 277 263 252 243 238 233 229 227 223 220 231 236 238 235 230 213 225 226 224 221 219 219 228 236 242 246 257 255 275 279 278 276 272 270 270 273 275 274 276 277 278
297 294 287 273 257 246 241 238 234 236 227 221 224 239 260 286 252 234 223 231 238 237 233 226 228 231 236 245 253 280 293 285 281 281 280 276 274 273 273 273 274 276 277
314 309 298 289 281 266 253 244 238 233 230 228 224 226 231 245 254 251 248 237 246 249 251 247 240 239 244 250 259 282 292 285 282 282 282 282 279 277 277 277 275 275 276
295 303 300 291 284 278 267 254 245 238 236 232 229 230 231 227 231 238 246 248 253 253 253 249 243 246 251 257 265 288 287 282 283 285 284 284 284 283 282 282 279 278 277
292 300 300 293 293 292 283 270 257 245 236 233 231 232 236 240 246 247 253 259 265 263 255 245 237 246 252 266 272 287 278 279 282 282 282 282 285 286 284 283 283 282 280
293 301 301 302 302 297 287 280 273 260 246 236 230 229 229 236 240 242 244 252 262 259 247 246 244 241 254 270 284 285 278 277 280 281 281 282 283 284 284 282 282 283 282
297 300 298 301 304 298 293 281 266 260 245 239 229 226 231 235 236 242 245 247 253 261 258 251 249 249 265 274 281 277 279 282 280 279 280 282 284 283 281 281 282 282 282
288 292 294 292 293 287 277 263 255 253 233 232 238 230 233 239 238 240 243 250 251 257 264 267 265 274 276 276 281 280 281 287 275 274 276 280 283 283 280 278 279 280 281
272 273 276 274 278 279 273 257 246 242 232 232 229 229 235 240 240 241 241 246 256 259 262 272 274 278 278 281 283 284 286 284 282 278 280 281 282 281 280 279 279 280 281
267 263 257 254 259 262 261 252 243 236 230 232 236 236 243 242 244 250 249 252 257 261 264 272 277 280 281 287 291 291 290 288 287 288 284 283 284 283 283 280 280 280 280
262 261 258 252 250 249 245 242 239 237 233 235 240 242 246 245 244 249 250 255 260 264 266 270 278 283 284 289 293 293 293 290 292 292 286 282 281 285 285 282 281 281 281
259 256 254 258 255 249 244 237 235 236 238 244 247 246 248 248 251 253 254 258 264 268 271 276 282 284 286 294 295 296 296 296 295 294 289 292 290 286 282 280 279 279 279
254 255 254 254 252 248 244 239 234 235 235 239 244 249 253 262 269 264 265 268 270 270 276 280 284 285 287 299 297 297 295 301 297 293 300 298 295 289 287 283 277 275 279
244 245 246 250 249 243 232 237 240 234 231 234 240 245 246 243 246 249 259 270 273 272 276 280 284 286 291 293 294 297 299 303 300 303 304 299 295 291 292 290 292 289 284
235 239 243 242 241 230 219 227 234 238 231 234 240 244 246 252 257 259 257 264 271 270 266 272 278 282 290 296 296 293 292 294 290 301 300 291 295 293 297 298 299 295 295
228 232 237 239 238 230 221 226 230 231 230 233 241 249 252 258 265 279 280 280 288 294 288 276 278 289 297 302 296 291 292 292 290 292 293 286 295 298 304 299 298 298 300
227 228 230 232 234 230 218 222 228 227 229 233 242 260 267 266 280 278 269 274 290 303 316 304 304 305 310 311 307 298 295 295 297 303 303 287 299 306 300 293 298 302 304
225 223 227 232 234 235 221 224 227 230 235 238 246 255 262 273 285 277 268 270 282 299 307 311 311 313 309 316 319 303 297 292 296 298 310 307 302 315 303 291 303 306 301